Location: Chandolas
(44.4033°N, 4.2533°E)
Time: 21:01:39
(UTC+00:00)

SL-27 R/B - Pass Details

Date: 15 November 2019
Orbit: 420 x 473 km, 74.7° (Epoch: 14 December)

Event Time Altitude Azimuth Distance (km) Brightness Sun altitude
Exits shadow 04:23:18 37° 62° (ENE) 677 3.7 -24.1°
Drops below altitude 10° 04:25:40 10° 31° (NNE) 1,512 5.4 -23.7°
Sets 04:27:46 0° 25° (NNE) 2,385 6.4 -23.3°
